Regional Weather Roundup
Issued by NWS

Home | Current Version | Previous Version | Text Only | Print | Product List | Glossary Off
Versions: 1 2 3 4 5 6 7 8 9 10 11 12 13 14 15 16 17 18 19 20 21 22 23 24 25 26 27 28 29 30 31 32 33 34 35 36 37 38 39 40 41 42 43 44 45 46 47 48 49 50

000
ASUS43 KIND 241359
RWRIN

WEATHER ROUNDUP FOR INDIANA
NATIONAL WEATHER SERVICE INDIANAPOLIS IN
1000 AM EDT THU APR 24 2014

NOTE: "FAIR" INDICATES FEW OR NO CLOUDS BELOW 12,000 FEET WITH NO
SIGNIFICANT WEATHER AND/OR OBSTRUCTIONS TO VISIBILITY.

* - STATION DOES NOT REPORT WEATHER SUCH AS PRECIPITATION OR FOG.

+ - STATION NOT QUALITY CONTROLLED BY THE NATIONAL WEATHER SERVICE.
    USE DATA WITH CAUTION...ESPECIALLY DEWPOINT AND RELATIVE
    HUMIDITY OBSERVATIONS.

INZ001>003-010>013-019-020-241500-
NORTHWEST INDIANA

CITY           SKY/WX    TMP DP  RH WIND       PRES   REMARKS
GARY /AIRPORT/ CLOUDY    54  36  50 SE12G23   30.01F
VALPARAISO     CLOUDY    52  35  52 SE13G22   30.03F

$$

LMZ046-743>745-241500-
SOUTHERN LAKE MICHIGAN

STATION/POSITION TIME  TEMP WIND        PRES
                       AIR  DIR/SP/G
                 (UTC) (F)  (DEG/KT/KT) (MB)
MICHIGAN CITY    1300   51  110/ 14/ 21   N/A

$$

INZ004-005-014>016-021>024-241500-
NORTH CENTRAL INDIANA

CITY           SKY/WX    TMP DP  RH WIND       PRES   REMARKS
ELKHART        PTSUNNY   52  32  46 SE13      30.08F
GOSHEN         PTSUNNY   52  33  48 SE14      30.08F
SOUTH BEND     PTSUNNY   53  32  44 SE18      30.07F

$$

INZ006>009-017-018-025>027-241500-
NORTHEAST INDIANA

CITY           SKY/WX    TMP DP  RH WIND       PRES   REMARKS
ANGOLA *+      MOSUNNY   46  30  53 SE9       30.11F
FORT WAYNE     PTSUNNY   50  27  40 SE15      30.11F

$$

INZ028-029-035-036-043>045-051>053-241500-
WEST CENTRAL INDIANA

CITY           SKY/WX    TMP DP  RH WIND       PRES   REMARKS
GREENCASTLE +  PTSUNNY   54  37  54 SE13G20   30.04F
LAFAYETTE      CLOUDY    52  37  56 SE14G24   30.03F
TERRE HAUTE    MOSUNNY   56  36  47 SE15      30.01F

$$

INZ030>032-037>040-046>048-054>057-064-065-241500-
CENTRAL INDIANA

CITY           SKY/WX    TMP DP  RH WIND       PRES   REMARKS
ANDERSON       MOSUNNY   50  25  37 SE17G29   30.10F
INDIANAPOLIS   CLOUDY    50  30  46 SE18G25   30.04F
-EAGLE CREEK   CLOUDY    52  29  41 SE15      30.05F
KOKOMO *+      CLOUDY    54  28  37 SE20      30.06F
MT COMFORT *+  CLOUDY    52  28  40 SE14      30.07F
SHELBYVILLE    CLOUDY    55  28  35 E16G26    30.07F

$$

INZ033-034-041-042-049-050-058-059-241500-
EAST CENTRAL INDIANA

CITY           SKY/WX    TMP DP  RH WIND       PRES   REMARKS
MUNCIE         PTSUNNY   51  23  33 SE22      30.09F

$$

INZ060-061-067>069-081>083-085>088-241500-
SOUTHWEST INDIANA

CITY           SKY/WX    TMP DP  RH WIND       PRES   REMARKS
EVANSVILLE     PTSUNNY   56  36  47 E9        30.00F
HUNTINGBURG *+ CLOUDY    55  37  50 SE12      30.02F

$$

INZ062-063-066-070>080-084-089>092-241500-
SOUTH CENTRAL AND SOUTHEAST INDIANA

CITY           SKY/WX    TMP DP  RH WIND       PRES   REMARKS
BLOOMINGTON    PTSUNNY   53  34  48 SE14      30.03F

$$




USA.gov is the U.S. government's official web portal to all federal, state and local government web resources and services.